www.pogodaiklimat.ru

Погода и климат >> Архив погоды >> Вьетнам >> Дананг


ПОГОДА в Дананге

  • Прогноз погоды в Дананге
  • Монитор погоды в Дананге

АРХИВ ПОГОДЫ в Дананге

Время (UTC), дата Ветер
(напр.,м/с)
 
Видим.   Явления Облачность Т
(С)
Тd
(С)
f
(%)
Тe
(С)
Тes
(С)
Комфортность P
(гПа)
Po
(гПа)
Тmin
(С)
Tmax
(С)
R
(мм)
R24
(мм)
S
(см)
21 16.09 Ю 1 20 км 8/0
[Cs]
+25.7 +23.2 86 +34 +34 очень
душно
1007.4 1006.6
00 17.09 ЮЗ 1 20 км 8/1 600 м
[Cu med, cong Cs]
+25.8 +22.8 84 +34 +36 очень
душно
1008.9 1008.1 +24.9
03 17.09 С 2 20 км 9/3 600 м
[Cu med, cong Cs]
+31.2 +23.7 64 +42 +52 опасность
перегрева
1009.9 1009.1
06 17.09 С 0 20 км 8/3 600 м
[Cb calv Cs]
+32.9 +22.2 53 +42 +57 опасность
перегрева
1007.7 1006.9
09 17.09 С 3 20 км 8/1 600 м
[Cu med, cong Cs]
+31.8 +23.4 61 +43 +45 опасность
перегрева
1006.3 1005.5
12 17.09 С 1 20 км 9/3 600 м
[Cu Sc Cs]
+30.0 +24.1 71 +42 +42 опасность
перегрева
1008.1 1007.3 +33.4
15 17.09 Ю 1 20 км 9/3 1500 м
[Sc Ac lent Cs]
+28.4 +23.4 74 +38 +38 очень
душно
1009.5 1008.7
18 17.09 штиль 0 20 км 9/9 600 м
[Cu Sc]
+27.0 +22.4 76 +35 +35 очень
душно
1008.0 1007.2
21 17.09 штиль 0 20 км {ливн. осадки} 9/6 600 м
[Cu Sc Ac lent Cs]
+26.2 +24.4 90 +37 +37 очень
душно
1007.8 1007.0
00 18.09 СВ 1 4000 м дождь {гроза, ливн. осадки} 10/8
[Cb cap As op]
+25.0 +23.5 91 +34 +34 очень
душно
1009.7 1008.9 +25.0 17
03 18.09 ЮЗ 1 20 км {дождь} 9/8 600 м
[Cu Sc Cs]
+29.0 +25.1 80 +42 +46 опасность
перегрева
1010.4 1009.6
06 18.09 С 3 20 км {дождь} 9/4 600 м
[Cu med, cong Cs]
+31.8 +24.7 66 +45 +52 опасность
перегрева
1008.4 1007.6 1
09 18.09 С 3 20 км 9/4 600 м
[Cu Sc Cs]
+31.0 +24.7 69 +44 +45 опасность
перегрева
1007.8 1007.0
12 18.09 В 1 20 км 9/3
[Cu med, cong Cs]
+29.1 +24.2 75 +41 +41 опасность
перегрева
1009.8 1009.0 +32.4 1 18
15 18.09 штиль 0 20 км 9/8 600 м
[Cb cap Cs]
+29.1 +24.9 78 +42 +42 опасность
перегрева
1010.7 1009.9
18 18.09 Ю 1 2000 м 10/10 300 м
[Cb cap]
+25.8 +24.8 94 +37 +37 очень
душно
1010.0 1009.2 25
21 18.09 штиль 0 10 км слаб. дождь {гроза} 9/9 300 м
[Cu Sc]
+25.0 +24.2 95 +34 +34 очень
душно
1009.5 1008.7
00 19.09 Ю 1 20 км {гроза, ливн. осадки} 9/3
[Cb calv Cs]
+25.7 +24.7 94 +36 +38 очень
душно
1010.7 1009.9 +25.0 61
03 19.09 СВ 1 20 км 9/6 600 м
[Cb cap Cs]
+29.9 +24.4 72 +42 +48 опасность
перегрева
1011.6 1010.8
06 19.09 С 2 20 км 9/6 600 м
[Cb cap Cs]
+30.7 +24.5 70 +43 +50 опасность
перегрева
1009.0 1008.2 61
09 19.09 В 3 20 км 9/3 600 м
[Cb cap Cs]
+30.6 +24.1 68 +42 +44 опасность
перегрева
1008.4 1007.6
12 19.09 штиль 0 20 км 9/6
[Cu Sc Cs]
+28.8 +24.6 78 +41 +41 опасность
перегрева
1010.1 1009.3 +31.3 61
15 19.09 ЮЗ 1 10 км в посл. час ливневой дождь 9/9 600 м
[Cb cap]
+26.2 +24.6 91 +37 +37 очень
душно
1011.4 1010.6
18 19.09 С 1 10 км {гроза, ливн. осадки} 9/5 600 м
[Cb cap Cs]
+25.3 +24.2 94 +35 +35 очень
душно
1010.0 1009.2 42
21 19.09 Ю 1 10 км {дождь} 9/8 600 м
[Cu Sc Cs]
+25.5 +24.4 94 +36 +36 очень
душно
1009.1 1008.3
00 20.09 Ю 1 20 км {дождь} 9/6
[Cu Sc Ac trans Cs]
+26.0 +24.5 91 +36 +37 очень
душно
1010.4 1009.6 +25.3 42
03 20.09 штиль 0 20 км 9/6 300 м
[Cb cap Ac trans Cs]
+29.7 +24.5 74 +42 +48 опасность
перегрева
1010.9 1010.1
06 20.09 В 2 20 км 9/4 600 м
[Cb cap Ac lent Cs]
+31.4 +23.9 64 +43 +49 опасность
перегрева
1008.2 1007.4 42
09 20.09 нст 2 20 км 9/5 600 м
[Cb cap Cs]
+30.2 +24.5 72 +43 +44 опасность
перегрева
1007.6 1006.8
12 20.09 Ю 1 10 км слаб. дождь 9/9 300 м
[Cb cap]
+25.5 +23.9 91 +35 +35 очень
душно
1009.1 1008.3 +31.8 11
15 20.09 штиль 0 10 км {дождь} 9/4 600 м
[Cb cap Cs]
+25.8 +24.2 91 +36 +36 очень
душно
1010.6 1009.8
18 20.09 штиль 0 10 км {дождь} 9/4 600 м
[Cb cap Cs]
+25.2 +24.0 93 +35 +35 очень
душно
1009.6 1008.8 0.0
21 20.09 Ю 1 10 км 9/3 600 м
[Cu Sc Cs]
+24.8 +23.6 93 +34 +34 очень
душно
1009.0 1008.2
00 21.09 Ю 1 20 км 9/4
[Cu Sc Cs]
+25.0 +23.9 94 +34 +35 очень
душно
1010.2 1009.4 +24.8 0.0
03 21.09 С 2 20 км 9/9 600 м
[Cb cap]
+28.0 +24.5 81 +39 +41 очень
душно
1010.7 1009.9
06 21.09 С 1 20 км 9/9 600 м
[Cb cap]
+28.0 +23.3 76 +38 +40 очень
душно
1009.1 1008.3 0.0
09 21.09 СЗ 2 20 км 9/9 600 м
[Cu Sc]
+29.0 +23.5 72 +39 +40 очень
душно
1008.1 1007.3
12 21.09 С 1 20 км 9/9
[Cu Sc]
+27.6 +22.7 75 +37 +37 очень
душно
1009.6 1008.8 +29.7 0.0
15 21.09 штиль 0 20 км 9/9 600 м
[Cu Sc]
+26.5 +22.8 80 +35 +35 очень
душно
1012.0 1011.2
18 21.09 штиль 0 20 км 9/9 600 м
[Cu Sc]
+26.1 +22.8 82 +35 +35 очень
душно
1011.3 1010.5
21 21.09 СЗ 1 20 км 9/8 600 м
[Cu Sc Cs]
+25.5 +22.5 83 +33 +33 очень
душно
1011.1 1010.3
00 22.09 штиль 0 20 км 9/8
[Cb cap Cs]
+26.6 +22.7 79 +35 +36 очень
душно
1013.4 1012.6 +25.4
03 22.09 Ю 1 20 км 9/5 600 м
[Cu Sc Cs]
+30.8 +22.3 61 +40 +48 очень
душно
1013.4 1012.6
06 22.09 В 2 20 км 9/9 600 м
[Cu Sc]
+30.2 +21.7 60 +38 +40 очень
душно
1011.8 1011.0
09 22.09 З 1 20 км 9/8 600 м
[Cb cap Cs]
+29.2 +22.2 66 +38 +39 очень
душно
1011.7 1010.9
12 22.09 С 1 20 км 9/5
[Cu Sc Cs]
+27.5 +22.5 74 +36 +36 очень
душно
1013.2 1012.4 +31.4
15 22.09 СЗ 2 10 км слаб. ливневой дождь 9/8 600 м
[Cb cap Cs]
+25.9 +23.4 86 +35 +35 очень
душно
1014.3 1013.5
18 22.09 З 1 10 км {ливн. осадки} 9/3 600 м
[Cu Sc Cs]
+25.0 +22.7 87 +33 +33 очень
душно
1013.7 1012.9 0.3
21 22.09 штиль 0 10 км 9/9 300 м
[Cu Sc]
+25.1 +22.7 87 +33 +33 очень
душно
1014.0 1013.2
00 23.09 С 1 2000 м сильн. дождь 10/10 300 м
[Cb cap]
+24.4 +22.9 91 +32 +32 очень
душно
1016.7 1015.9 +24.4 5
03 23.09 СЗ 2 10 км {дождь} 9/9 600 м
[Cb cap]
+26.0 +23.0 84 +35 +36 очень
душно
1016.9 1016.1
06 23.09 СЗ 2 10 км слаб. дождь 9/9 600 м
[Cb cap]
+27.8 +22.1 71 +36 +38 очень
душно
1014.7 1013.9 +24.0 20
09 23.09 С 2 20 км 9/8 600 м
[Cu Sc Cs]
+28.0 +23.8 78 +39 +39 очень
душно
1014.2 1013.4
12 23.09 СЗ 2 10 км {дождь} 9/9 600 м
[Cu Sc]
+26.9 +22.9 79 +36 +36 очень
душно
1015.2 1014.4 +28.9 21
15 23.09 З 1 10 км 9/8 600 м
[Cu Sc Cs]
+25.8 +22.5 82 +34 +34 очень
душно
1016.6 1015.8
18 23.09 штиль 0 10 км 9/8 600 м
[Cu Sc Cs]
+25.2 +22.3 84 +33 +33 очень
душно
1015.0 1014.2

 

Местоположение метеостанции Дананг (Вьетнам): широта 16.07 долгота 108.35 высота над уровнем моря 7 м.

В архиве по умолчанию представлена погода в Дананге за последнюю неделю. Архивные данные за месяц целиком и за предыдущие месяцы, начиная с января 2011 года, Вы можете получить, выбрав интересующий диапазон дат из раскрывающегося списка и нажав кнопку "Ввод!".


*Определитесь, кто Вы:
робот инопланетянин человек

Внимание! Время в таблицах - всемирное. Для получения местного времени необходимо прибавить поправку, которая равна 7 ч.

Смотрите также архив погоды в соседних городах и на ближайших метеорологических станциях:

Погода в Хюэ (Вьетнам) (91 км)
Погода в Куангнгае (Вьетнам) (114 км)
Погода в Секонге (Лаос) (190 км)
Погода в Сараване (Лаос) (211 км)
Погода в Аттапы (Лаос) (215 км)
Погода в Плейку (Вьетнам) (235 км)
Погода в Донгхое (Вьетнам) (244 км)
Погода в Ясяне (Хайнань, Китай) (270 км)
Погода в Куинёне (Вьетнам) (272 км)
Погода в Паксе (Лаос) (295 км)

Пояснения к столбцам:

Ветер - указаны скорость ветра в м/с - средняя за 10 мин, порывы в срок и между сроками (в фигурных скобках) и направление, откуда дует ветер: С - северный, СВ - северо-восточный, В - восточный, ЮВ - юго-восточный, Ю - южный, ЮЗ - юго-западный, З - западный, СЗ - северо-западный.
Видимость - горизонтальная дальность видимости в метрах или километрах. При видимости от 1 до 10 км при отсутствии осадков обычно наблюдается дымка, при ухудшении видимости до 1 км и менее - туман. В сухую погоду видимость может ухудшаться дымом, пылью или мглою.
Явления - указаны атмосферные явления, наблюдавшиеся в срок или в последний час перед сроком; фигурными скобками обозначены явления, наблюдавшиеся между сроками (за 1-3 часа до срока); квадратными скобками обозначены град или гололедные отложения с указанием их диаметра в мм.
Облачность - указаны через наклонную черту общая и нижняя облачность в баллах и высота нижней границы облаков в метрах; квадратными скобками обозначены формы облаков: Ci - перистые, Cs - перисто-слоистые, Cc - перисто-кучевые, Ac - высококучевые, As - высокослоистые, Sc - слоисто-кучевые, Ns - слоисто-дождевые, Cu - кучевые, Cb - кучево-дождевые. Подробнее классификацию облаков см. в Атласе облаков (PDF).
T - Температура воздуха - температура, измеренная на высоте 2 м над землей.
Td - Температура точки росы - температура, при понижении до которой содержащийся в воздухе водяной пар достигнет насыщения.
f - Относительная влажность воздуха - влажноcть воздуха, измеренная на высоте 2 м над землей.
Te - Эффективная температура - температура, которую ощущает одетый по сезону человек в тени. Характеристика душности погоды. При расчете учитывается влияние влажности воздуха и скорости ветра на теплоощущения человека.
Tes - Эффективная температура на солнце - температура, которую ощущает человек, с поправкой на солнечный нагрев. Характеристика знойности погоды. Зависит от высоты солнца над горизонтом, облачности и скорости ветра. Ночью, в пасмурную погоду, а также при ветре 12 м/с и более поправка равна нулю.
P - Атмосферное давление - приведенное к уровню моря атмосферное давление.
Po - Атмосферное давление - измеренное на уровне метеостанции атмосферное давление.
Tmin - Минимальная температура - минимум температуры воздуха на высоте 2 м над землей.
Tmax - Максимальная температура - максимум температуры воздуха на высоте 2 м над землей.
R - Количество осадков - Количество выпавших осадков за период времени, мм. При наведении курсора мыши на число - период времени, за который выпало указанное количество осадков.
R24 - Количество осадков - Количество выпавших осадков за 24 часа, мм.
S - Снежный покров - Высота снежного покрова, см. При наведении курсора мыши на число - состояние снежного покрова и степень покрытия местности в баллах.